Regional Weather Roundup
Issued by NWS Sioux Falls, SD

Home | Current Version | Previous Version | Graphics & Text | Print | Product List | Glossary On
Versions: 1 2 3 4 5 6 7 8 9 10 11 12 13 14 15 16 17 18 19 20 21 22 23 24 25 26 27 28 29 30 31 32 33 34 35 36 37 38 39 40 41 42 43 44 45 46 47 48 49 50
000
ASUS43 KFSD 240102
RWRFSD

WEATHER ROUNDUP FOR SE SOUTH DAKOTA/SW MINNESOTA/NW IOWA
NATIONAL WEATHER SERVICE SIOUX FALLS SD
800 PM CDT WED JUL 23 2014

NOTE: "FAIR" INDICATES FEW OR NO CLOUDS BELOW 12,000 FEET WITH NO
SIGNIFICANT WEATHER AND OR OBSTRUCTIONS TO VISIBILITY.


SDZ038>040-050-052>070-240200-
SOUTHEAST SOUTH DAKOTA

CITY           SKY/WX    TMP DP  RH WIND       PRES   REMARKS
CHAMBERLAIN    SUNNY     79  56  43 SE10      30.13F
HURON          SUNNY     76  55  48 E10       30.15F
MADISON        FAIR      73  54  49 E8        30.19F
MITCHELL       CLEAR     78  60  53 E7        30.15F
SIOUX FALLS    PTCLDY    75  56  51 NE10      30.17F
WINNER         FAIR      83  54  36 SE14      30.12F
YANKTON        CLEAR     75  61  60 E6        30.16S
$$

MNZ071-072-080-081-089-090-097-098-240200-
SOUTHWEST MINNESOTA

CITY           SKY/WX    TMP DP  RH WIND       PRES   REMARKS
FAIRMONT       CLEAR     75  55  50 N3        30.18F
JACKSON        CLEAR     73  54  49 NE5       30.20F
LUVERNE        CLEAR     77  55  47 E7        30.18F
MARSHALL       CLEAR     75  55  50 NE7       30.17F
MONTEVIDEO     CLEAR     75  57  53 E6        30.19F
PIPESTONE      CLEAR     75  54  46 CALM      30.20F
REDWOOD FALLS  CLEAR     77  54  44 N6        30.18F
TRACY          CLEAR     75  58  55 NE5       30.19F
WINDOM         CLEAR     75  57  53 N3        30.19F
WORTHINGTON    CLEAR     75  55  50 NE6       30.21F
$$

IAZ001>003-012>014-020>022-031-032-NEZ013-014-SDZ071-240200-
NORTHWEST IOWA

CITY           SKY/WX    TMP DP  RH WIND       PRES   REMARKS
CHEROKEE       CLEAR     77  60  55 NE5       30.16S
DENISON        CLEAR     77  64  65 NE5       30.14S
ESTHERVILLE    CLEAR     74  55  51 N8        30.18F
LE MARS        CLEAR     79  59  50 NE7       30.17S
ORANGE CITY    CLEAR     79  57  47 E5        30.18S
SIOUX CITY     CLEAR     79  58  48 NE7       30.15S
SPENCER        CLEAR     76  61  59 NE7       30.18S
STORM LAKE     CLEAR     75  64  69 E6        30.18S
$$

ABBREVIATIONS USED IN REMARKS
   TC - TEMPERATURE IN CELSIUS
  WCI - WIND CHILL INDEX
   HX - HEAT INDEX
  VSB - VISIBILITY



USA.gov is the U.S. government's official web portal to all federal, state and local government web resources and services.